Starlink 1556

operational
NORAD ID: 46033 Int'l Des: 2020-055 Owner: SPXS Country: US Constellation: starlink
LEOCIRCULARSTARLINK_TYPE

Starlink 1556について

説明を読み込み中...

リアルタイム位置

3D地球を読み込み中...

次回通過

高度履歴

Altitude vs Time

uPlot chart will show altitude changes over time

軌道要素

1 46033U 20055G 26036.62438297 .00004449 00000-0 31746-3 0 9991
2 46033 53.0531 270.5631 0001430 89.6954 270.4199 15.06392254304037
Epoch: Feb 5, 2026 • Age: 8 hours

現在のステータス

高度 564.4 km
速度 7.58 km/s
衛星直下点 -47.44°S, 98.73°E
打ち上げ日 Aug 7, 2020
運用期間 5.4 years
タイプ internet

技術仕様

分類 Payload
質量 260.00 kg
乾燥質量 248.00 kg
総質量 260.00 kg
長さ 0.20 m
直径 2.80 m
スパン 9.00 m
形状 Box + pan
製造者 SPXS
バスタイプ Starlink
フェーズステータス In Orbit
所有者/国 SPXS/US

大規模コンステレーション

Loading constellations...